Regional Weather Roundup
Issued by NWS Northern Indiana

Home | Current Version | Previous Version | Graphics & Text | Print | Product List | Glossary On
Versions: 1 2 3 4 5 6 7 8 9 10 11 12 13 14 15 16 17 18 19 20 21 22 23 24 25 26 27 28 29 30 31 32 33 34 35 36 37 38 39 40 41 42 43 44 45 46 47 48 49 50
000
ASUS43 KIWX 300800
RWRIWX

KIWX WEATHER ROUNDUP
NATIONAL WEATHER SERVICE NORTHERN INDIANA
400 AM EDT SUN APR 30 2017

NOTE: "FAIR" INDICATES FEW OR NO CLOUDS BELOW 12,000 FEET WITH NO
SIGNIFICANT WEATHER AND/OR OBSTRUCTIONS TO VISIBILITY.

* THESE STATIONS ARE NOT UNDER NWS QUALITY CONTROL. THEY ALSO MAY NOT
  REPORT WEATHER SUCH AS PRECIPITATION OR FOG.

INZ001>027-300900-
NORTHERN INDIANA

CITY           SKY/WX    TMP DP  RH WIND       PRES   REMARKS
SOUTH BEND     CLOUDY    43  40  89 E12       29.95F
GOSHEN         CLOUDY    45  40  82 E9        29.95S
MONTICELLO*    DRIZZLE   51  50  96 E6        29.89S
ANGOLA*        PTCLDY    41  30  65 E17       29.95F
FORT WAYNE     CLOUDY    45  41  86 E17G24    29.94F
PERU/GRISSOM   CLOUDY    48  48 100 E10       29.88S

$$
INZ028>050-300900-
CENTRAL INDIANA

CITY           SKY/WX    TMP DP  RH WIND       PRES   REMARKS
LAFAYETTE      LGT RAIN  57  57 100 E9        29.86F
KOKOMO*        CLOUDY    49  47  93 E10       29.90F
MUNCIE*        MOCLDY    51  48  89 E9        29.91F
INDIANAPOLIS   CLOUDY    57  56  96 E7        29.89S

$$
MIZ043>046-050>051-056>058-064>065-071>073-077>080-300900-
SOUTHWEST LOWER MICHIGAN

CITY           SKY/WX    TMP DP  RH WIND       PRES   REMARKS
BATTLE CREEK   CLOUDY    42  38  85 E12       29.99F
BENTON HARBOR  LGT RAIN  45  38  76 E17G31    29.93F
COLDWATER*     CLOUDY    43  39  88 E14G20    29.97F
HILLSDALE*     MOCLDY    41  37  87 E15G22    29.98F
HOLLAND        CLOUDY    42  38  85 E21G26    29.98F
GRAND RAPIDS   LGT RAIN  40  40 100 E23G35    30.01F FOG
KALAMAZOO      CLOUDY    43  36  76 E7        30.00F
STURGIS*       CLOUDY    42  39  89 E10G18    29.96S
THREE RIVERS*  DRIZZLE   43  38  84 E9        29.99F

$$
OHZ001>008-015>018-024>025-300900-
NORTHWEST OHIO

CITY           SKY/WX    TMP DP  RH WIND       PRES   REMARKS
DEFIANCE       CLOUDY    43  41  93 E13       29.99F
FINDLAY        LGT RAIN  47  42  83 E10       30.01F
TOLEDO EXPRESS CLOUDY    45  43  93 E12       30.01F
TOLEDO METCALF CLOUDY    47  45  93 NE14      30.04F
LIMA           LGT RAIN  46  45  96 NE8       29.97F

$$
AND FOR LAKE MICHIGAN COASTAL AND OPEN LAKE BUOY OBSERVATIONS

STATION/POSITION TEMP    WIND        PRES    VSBY  WAVE
                 AIR SEA DIR/SP/G                  HT/PER
                 (F)     (DEG/KT/KT) (MB)    (MI)  (FT/S)
CALUMET HARBOR    44      10/ 11/ 13 1013.2F
MICHIGAN CITY     45     100/ 12/ 14   N/A
BURNS HARBOR      46      60/  2/  5 1013.5F
SOUTH LAKE BUOY   41 41   40/ 17/ 21 1016.3          6/ 6
4 MI NW BRIDGMAN  45 45  130/ 19/ 27 1013.0F         4/ 6
MICHIGAN CITY     45 47                N/A           5/ 7

$$
&&



USA.gov is the U.S. government's official web portal to all federal, state and local government web resources and services.